Year,Month,Day,Hour,Minute,Value (Times are PST for temperature in C)
2012,09,14,00,00,14.20
2012,09,14,00,01,14.20
2012,09,14,00,02,14.20
2012,09,14,00,03,14.20
2012,09,14,00,04,14.30
2012,09,14,00,05,14.30
2012,09,14,00,06,14.40
2012,09,14,00,07,14.40
2012,09,14,00,08,14.40
2012,09,14,00,09,14.40
2012,09,14,00,10,14.40
2012,09,14,00,11,14.50
2012,09,14,00,12,14.50
2012,09,14,00,13,14.50
2012,09,14,00,14,14.60
2012,09,14,00,15,14.60
2012,09,14,00,16,14.60
2012,09,14,00,17,14.60
2012,09,14,00,18,14.60
2012,09,14,00,19,14.60
2012,09,14,00,20,14.60
2012,09,14,00,21,14.60
2012,09,14,00,22,14.60
2012,09,14,00,23,14.60
2012,09,14,00,24,14.50
2012,09,14,00,25,14.50
2012,09,14,00,26,14.40
2012,09,14,00,27,14.40
2012,09,14,00,28,14.30
2012,09,14,00,29,14.20
2012,09,14,00,30,14.10
2012,09,14,00,31,14.00
2012,09,14,00,32,14.00
2012,09,14,00,33,13.90
2012,09,14,00,34,13.90
2012,09,14,00,35,13.80
2012,09,14,00,36,13.70
2012,09,14,00,37,13.70
2012,09,14,00,38,13.70
2012,09,14,00,39,13.60
2012,09,14,00,40,13.60
2012,09,14,00,41,13.50
2012,09,14,00,42,13.50
2012,09,14,00,43,13.50
2012,09,14,00,44,13.40
2012,09,14,00,45,13.40
2012,09,14,00,46,13.30
2012,09,14,00,47,13.30
2012,09,14,00,48,13.30
2012,09,14,00,49,13.20
2012,09,14,00,50,13.20
2012,09,14,00,51,13.10
2012,09,14,00,52,13.10
2012,09,14,00,53,13.00
2012,09,14,00,54,13.00
2012,09,14,00,55,13.00
2012,09,14,00,56,12.90
2012,09,14,00,57,12.90
2012,09,14,00,58,12.80
2012,09,14,00,59,12.80
2012,09,14,01,00,12.80
2012,09,14,01,01,12.80
2012,09,14,01,02,12.70
2012,09,14,01,03,12.70
2012,09,14,01,04,12.70
2012,09,14,01,05,12.60
2012,09,14,01,06,12.60
2012,09,14,01,07,12.60
2012,09,14,01,08,12.60
2012,09,14,01,09,12.60
2012,09,14,01,10,12.50
2012,09,14,01,11,12.50
2012,09,14,01,12,12.50
2012,09,14,01,13,12.50
2012,09,14,01,14,12.60
2012,09,14,01,15,12.70
2012,09,14,01,16,12.80
2012,09,14,01,17,12.80
2012,09,14,01,18,12.90
2012,09,14,01,19,13.00
2012,09,14,01,20,13.00
2012,09,14,01,21,13.00
2012,09,14,01,22,13.00
2012,09,14,01,23,12.90
2012,09,14,01,24,12.90
2012,09,14,01,25,12.90
2012,09,14,01,26,12.80
2012,09,14,01,27,12.80
2012,09,14,01,28,12.80
2012,09,14,01,29,12.80
2012,09,14,01,30,12.70
2012,09,14,01,31,12.70
2012,09,14,01,32,12.60
2012,09,14,01,33,12.60
2012,09,14,01,34,12.60
2012,09,14,01,35,12.50
2012,09,14,01,36,12.50
2012,09,14,01,37,12.50
2012,09,14,01,38,12.50
2012,09,14,01,39,12.50
2012,09,14,01,40,12.50
2012,09,14,01,41,12.50
2012,09,14,01,42,12.50
2012,09,14,01,43,12.50
2012,09,14,01,44,12.50
2012,09,14,01,45,12.50
2012,09,14,01,46,12.50
2012,09,14,01,47,12.50
2012,09,14,01,48,12.50
2012,09,14,01,49,12.50
2012,09,14,01,50,12.50
2012,09,14,01,51,12.50
2012,09,14,01,52,12.50
2012,09,14,01,53,12.50
2012,09,14,01,54,12.40
2012,09,14,01,55,12.40
2012,09,14,01,56,12.40
2012,09,14,01,57,12.30
2012,09,14,01,58,12.30
2012,09,14,01,59,12.40
2012,09,14,02,00,12.40
2012,09,14,02,01,12.40
2012,09,14,02,02,12.40
2012,09,14,02,03,12.50
2012,09,14,02,04,12.50
2012,09,14,02,05,12.40
2012,09,14,02,06,12.40
2012,09,14,02,07,12.40
2012,09,14,02,08,12.40
2012,09,14,02,09,12.40
2012,09,14,02,10,12.40
2012,09,14,02,11,12.40
2012,09,14,02,12,12.40
2012,09,14,02,13,12.40
2012,09,14,02,14,12.40
2012,09,14,02,15,12.40
2012,09,14,02,16,12.40
2012,09,14,02,17,12.50
2012,09,14,02,18,12.50
2012,09,14,02,19,12.60
2012,09,14,02,20,12.70
2012,09,14,02,21,12.80
2012,09,14,02,22,13.00
2012,09,14,02,23,13.10
2012,09,14,02,24,13.20
2012,09,14,02,25,13.30
2012,09,14,02,26,13.50
2012,09,14,02,27,13.60
2012,09,14,02,28,13.60
2012,09,14,02,29,13.70
2012,09,14,02,30,13.80
2012,09,14,02,31,13.90
2012,09,14,02,32,14.00
2012,09,14,02,33,14.00
2012,09,14,02,34,14.00
2012,09,14,02,35,14.10
2012,09,14,02,36,14.10
2012,09,14,02,37,14.10
2012,09,14,02,38,14.10
2012,09,14,02,39,14.10
2012,09,14,02,40,14.10
2012,09,14,02,41,14.10
2012,09,14,02,42,14.10
2012,09,14,02,43,14.10
2012,09,14,02,44,14.10
2012,09,14,02,45,14.10
2012,09,14,02,46,14.00
2012,09,14,02,47,14.00
2012,09,14,02,48,13.90
2012,09,14,02,49,13.90
2012,09,14,02,50,13.80
2012,09,14,02,51,13.70
2012,09,14,02,52,13.60
2012,09,14,02,53,13.60
2012,09,14,02,54,13.50
2012,09,14,02,55,13.40
2012,09,14,02,56,13.30
2012,09,14,02,57,13.20
2012,09,14,02,58,13.10
2012,09,14,02,59,13.00
2012,09,14,03,00,12.90
2012,09,14,03,01,12.80
2012,09,14,03,02,12.80
2012,09,14,03,03,12.70
2012,09,14,03,04,12.60
2012,09,14,03,05,12.50
2012,09,14,03,06,12.50
2012,09,14,03,07,12.40
2012,09,14,03,08,12.40
2012,09,14,03,09,12.30
2012,09,14,03,10,12.30
2012,09,14,03,11,12.30
2012,09,14,03,12,12.20
2012,09,14,03,13,12.20
2012,09,14,03,14,12.10
2012,09,14,03,15,12.10
2012,09,14,03,16,12.00
2012,09,14,03,17,12.00
2012,09,14,03,18,11.90
2012,09,14,03,19,11.90
2012,09,14,03,20,11.80
2012,09,14,03,21,11.80
2012,09,14,03,22,11.80
2012,09,14,03,23,11.80
2012,09,14,03,24,11.80
2012,09,14,03,25,11.80
2012,09,14,03,26,11.70
2012,09,14,03,27,11.70
2012,09,14,03,28,11.70
2012,09,14,03,29,11.60
2012,09,14,03,30,11.60
2012,09,14,03,31,11.60
2012,09,14,03,32,11.60
2012,09,14,03,33,11.60
2012,09,14,03,34,11.60
2012,09,14,03,35,11.50
2012,09,14,03,36,11.40
2012,09,14,03,37,11.40
2012,09,14,03,38,11.40
2012,09,14,03,39,11.40
2012,09,14,03,40,11.40
2012,09,14,03,41,11.30
2012,09,14,03,42,11.30
2012,09,14,03,43,11.30
2012,09,14,03,44,11.30
2012,09,14,03,45,11.20
2012,09,14,03,46,11.20
2012,09,14,03,47,11.20
2012,09,14,03,48,11.20
2012,09,14,03,49,11.20
2012,09,14,03,50,11.10
2012,09,14,03,51,11.10
2012,09,14,03,52,11.10
2012,09,14,03,53,11.10
2012,09,14,03,54,11.10
2012,09,14,03,55,11.10
2012,09,14,03,56,11.10
2012,09,14,03,57,11.00
2012,09,14,03,58,10.90
2012,09,14,03,59,10.90
2012,09,14,04,00,10.90
2012,09,14,04,01,10.90
2012,09,14,04,02,10.90
2012,09,14,04,03,10.90
2012,09,14,04,04,10.80
2012,09,14,04,05,10.80
2012,09,14,04,06,10.70
2012,09,14,04,07,10.70
2012,09,14,04,08,10.70
2012,09,14,04,09,10.60
2012,09,14,04,10,10.60
2012,09,14,04,11,10.60
2012,09,14,04,12,10.60
2012,09,14,04,13,10.60
2012,09,14,04,14,10.50
2012,09,14,04,15,10.40
2012,09,14,04,16,10.40
2012,09,14,04,17,10.40
2012,09,14,04,18,10.40
2012,09,14,04,19,10.40
2012,09,14,04,20,10.40
2012,09,14,04,21,10.40
2012,09,14,04,22,10.40
2012,09,14,04,23,10.40
2012,09,14,04,24,10.40
2012,09,14,04,25,10.40
2012,09,14,04,26,10.40
2012,09,14,04,27,10.40
2012,09,14,04,28,10.40
2012,09,14,04,29,10.40
2012,09,14,04,30,10.40
2012,09,14,04,31,10.30
2012,09,14,04,32,10.30
2012,09,14,04,33,10.30
2012,09,14,04,34,10.30
2012,09,14,04,35,10.20
2012,09,14,04,36,10.20
2012,09,14,04,37,10.20
2012,09,14,04,38,10.20
2012,09,14,04,39,10.20
2012,09,14,04,40,10.20
2012,09,14,04,41,10.10
2012,09,14,04,42,10.10
2012,09,14,04,43,10.10
2012,09,14,04,44,10.10
2012,09,14,04,45,10.10
2012,09,14,04,46,10.10
2012,09,14,04,47,10.10
2012,09,14,04,48,10.10
2012,09,14,04,49,10.10
2012,09,14,04,50,10.00
2012,09,14,04,51,9.90
2012,09,14,04,52,9.90
2012,09,14,04,53,9.90
2012,09,14,04,54,9.90
2012,09,14,04,55,9.90
2012,09,14,04,56,9.90
2012,09,14,04,57,9.90
2012,09,14,04,58,9.90
2012,09,14,04,59,9.90
2012,09,14,05,00,9.90
2012,09,14,05,01,9.90
2012,09,14,05,02,9.90
2012,09,14,05,03,9.90
2012,09,14,05,04,9.90
2012,09,14,05,05,9.90
2012,09,14,05,06,10.00
2012,09,14,05,07,10.20
2012,09,14,05,08,10.30
2012,09,14,05,09,10.50
2012,09,14,05,10,10.80
2012,09,14,05,11,11.00
2012,09,14,05,12,11.20
2012,09,14,05,13,11.50
2012,09,14,05,14,11.70
2012,09,14,05,15,11.90
2012,09,14,05,16,12.10
2012,09,14,05,17,12.30
2012,09,14,05,18,12.40
2012,09,14,05,19,12.50
2012,09,14,05,20,12.60
2012,09,14,05,21,12.70
2012,09,14,05,22,12.80
2012,09,14,05,23,12.90
2012,09,14,05,24,12.90
2012,09,14,05,25,13.00
2012,09,14,05,26,13.00
2012,09,14,05,27,13.10
2012,09,14,05,28,13.10
2012,09,14,05,29,13.10
2012,09,14,05,30,13.10
2012,09,14,05,31,13.20
2012,09,14,05,32,13.10
2012,09,14,05,33,13.10
2012,09,14,05,34,13.00
2012,09,14,05,35,13.00
2012,09,14,05,36,12.90
2012,09,14,05,37,12.80
2012,09,14,05,38,12.80
2012,09,14,05,39,12.70
2012,09,14,05,40,12.70
2012,09,14,05,41,12.70
2012,09,14,05,42,12.70
2012,09,14,05,43,12.60
2012,09,14,05,44,12.60
2012,09,14,05,45,12.60
2012,09,14,05,46,12.60
2012,09,14,05,47,12.60
2012,09,14,05,48,12.50
2012,09,14,05,49,12.50
2012,09,14,05,50,12.40
2012,09,14,05,51,12.40
2012,09,14,05,52,12.30
2012,09,14,05,53,12.30
2012,09,14,05,54,12.20
2012,09,14,05,55,12.20
2012,09,14,05,56,12.10
2012,09,14,05,57,12.10
2012,09,14,05,58,12.10
2012,09,14,05,59,12.10
2012,09,14,06,00,12.20
2012,09,14,06,01,12.20
2012,09,14,06,02,12.30
2012,09,14,06,03,12.30
2012,09,14,06,04,12.30
2012,09,14,06,05,12.30
2012,09,14,06,06,12.40
2012,09,14,06,07,12.40
2012,09,14,06,08,12.40
2012,09,14,06,09,12.40
2012,09,14,06,10,12.40
2012,09,14,06,11,12.50
2012,09,14,06,12,12.50
2012,09,14,06,13,12.40
2012,09,14,06,14,12.40
2012,09,14,06,15,12.30
2012,09,14,06,16,12.20
2012,09,14,06,17,12.10
2012,09,14,06,18,12.00
2012,09,14,06,19,12.00
2012,09,14,06,20,11.80
2012,09,14,06,21,11.80
2012,09,14,06,22,11.70
2012,09,14,06,23,11.60
2012,09,14,06,24,11.60
2012,09,14,06,25,11.50
2012,09,14,06,26,11.40
2012,09,14,06,27,11.30
2012,09,14,06,28,11.30
2012,09,14,06,29,11.20
2012,09,14,06,30,11.10
2012,09,14,06,31,11.10
2012,09,14,06,32,11.00
2012,09,14,06,33,10.90
2012,09,14,06,34,10.90
2012,09,14,06,35,10.80
2012,09,14,06,36,10.70
2012,09,14,06,37,10.70
2012,09,14,06,38,10.60
2012,09,14,06,39,10.60
2012,09,14,06,40,10.50
2012,09,14,06,41,10.40
2012,09,14,06,42,10.40
2012,09,14,06,43,10.40
2012,09,14,06,44,10.40
2012,09,14,06,45,10.40
2012,09,14,06,46,10.30
2012,09,14,06,47,10.30
2012,09,14,06,48,10.20
2012,09,14,06,49,10.20
2012,09,14,06,50,10.20
2012,09,14,06,51,10.10
2012,09,14,06,52,10.10
2012,09,14,06,53,10.10
2012,09,14,06,54,10.10
2012,09,14,06,55,10.00
2012,09,14,06,56,9.90
2012,09,14,06,57,9.90
2012,09,14,06,58,9.90
2012,09,14,06,59,9.90
2012,09,14,07,00,9.90
2012,09,14,07,01,9.90
2012,09,14,07,02,9.90
2012,09,14,07,03,9.90
2012,09,14,07,04,9.90
2012,09,14,07,05,10.00
2012,09,14,07,06,10.10
2012,09,14,07,07,10.10
2012,09,14,07,08,10.10
2012,09,14,07,09,10.10
2012,09,14,07,10,10.10
2012,09,14,07,11,10.20
2012,09,14,07,12,10.20
2012,09,14,07,13,10.20
2012,09,14,07,14,10.30
2012,09,14,07,15,10.30
2012,09,14,07,16,10.40
2012,09,14,07,17,10.40
2012,09,14,07,18,10.40
2012,09,14,07,19,10.40
2012,09,14,07,20,10.50
2012,09,14,07,21,10.60
2012,09,14,07,22,10.60
2012,09,14,07,23,10.70
2012,09,14,07,24,10.80
2012,09,14,07,25,10.90
2012,09,14,07,26,11.00
2012,09,14,07,27,11.10
2012,09,14,07,28,11.20
2012,09,14,07,29,11.20
2012,09,14,07,30,11.30
2012,09,14,07,31,11.40
2012,09,14,07,32,11.40
2012,09,14,07,33,11.60
2012,09,14,07,34,11.60
2012,09,14,07,35,11.70
2012,09,14,07,36,11.70
2012,09,14,07,37,11.80
2012,09,14,07,38,11.80
2012,09,14,07,39,11.90
2012,09,14,07,40,12.00
2012,09,14,07,41,12.00
2012,09,14,07,42,12.10
2012,09,14,07,43,12.20
2012,09,14,07,44,12.20
2012,09,14,07,45,12.30
2012,09,14,07,46,12.30
2012,09,14,07,47,12.30
2012,09,14,07,48,12.40
2012,09,14,07,49,12.50
2012,09,14,07,50,12.50
2012,09,14,07,51,12.50
2012,09,14,07,52,12.60
2012,09,14,07,53,12.60
2012,09,14,07,54,12.70
2012,09,14,07,55,12.70
2012,09,14,07,56,12.80
2012,09,14,07,57,12.80
2012,09,14,07,58,12.80
2012,09,14,07,59,12.90
2012,09,14,08,00,13.00
2012,09,14,08,01,13.00
2012,09,14,08,02,13.10
2012,09,14,08,03,13.10
2012,09,14,08,04,13.20
2012,09,14,08,05,13.30
2012,09,14,08,06,13.30
2012,09,14,08,07,13.30
2012,09,14,08,08,13.30
2012,09,14,08,09,13.40
2012,09,14,08,10,13.40
2012,09,14,08,11,13.40
2012,09,14,08,12,13.40
2012,09,14,08,13,13.50
2012,09,14,08,14,13.50
2012,09,14,08,15,13.50
2012,09,14,08,16,13.50
2012,09,14,08,17,13.60
2012,09,14,08,18,13.60
2012,09,14,08,19,13.70
2012,09,14,08,20,13.70
2012,09,14,08,21,13.70
2012,09,14,08,22,13.80
2012,09,14,08,23,13.80
2012,09,14,08,24,13.90
2012,09,14,08,25,14.00
2012,09,14,08,26,14.00
2012,09,14,08,27,14.20
2012,09,14,08,28,14.20
2012,09,14,08,29,14.20
2012,09,14,08,30,14.30
2012,09,14,08,31,14.40
2012,09,14,08,32,14.50
2012,09,14,08,33,14.50
2012,09,14,08,34,14.60
2012,09,14,08,35,14.60
2012,09,14,08,36,14.70
2012,09,14,08,37,14.80
2012,09,14,08,38,14.80
2012,09,14,08,39,14.80
2012,09,14,08,40,14.90
2012,09,14,08,41,14.90
2012,09,14,08,42,15.00
2012,09,14,08,43,15.00
2012,09,14,08,44,15.10
2012,09,14,08,45,15.10
2012,09,14,08,46,15.20
2012,09,14,08,47,15.30
2012,09,14,08,48,15.30
2012,09,14,08,49,15.40
2012,09,14,08,50,15.50
2012,09,14,08,51,15.50
2012,09,14,08,52,15.60
2012,09,14,08,53,15.70
2012,09,14,08,54,15.80
2012,09,14,08,55,15.80
2012,09,14,08,56,15.90
2012,09,14,08,57,16.00
2012,09,14,08,58,16.10
2012,09,14,08,59,16.20
2012,09,14,09,00,16.20
2012,09,14,09,01,16.30
2012,09,14,09,02,16.40
2012,09,14,09,03,16.50
2012,09,14,09,04,16.60
2012,09,14,09,05,16.70
2012,09,14,09,06,16.70
2012,09,14,09,07,16.80
2012,09,14,09,08,16.90
2012,09,14,09,09,16.90
2012,09,14,09,10,17.00
2012,09,14,09,11,17.00
2012,09,14,09,12,17.10
2012,09,14,09,13,17.10
2012,09,14,09,14,17.20
2012,09,14,09,15,17.30
2012,09,14,09,16,17.30
2012,09,14,09,17,17.40
2012,09,14,09,18,17.40
2012,09,14,09,19,17.50
2012,09,14,09,20,17.50
2012,09,14,09,21,17.50
2012,09,14,09,22,17.50
2012,09,14,09,23,17.50
2012,09,14,09,24,17.50
2012,09,14,09,25,17.50
2012,09,14,09,26,17.50
2012,09,14,09,27,17.60
2012,09,14,09,28,17.60
2012,09,14,09,29,17.70
2012,09,14,09,30,17.70
2012,09,14,09,31,17.80
2012,09,14,09,32,17.90
2012,09,14,09,33,17.90
2012,09,14,09,34,17.90
2012,09,14,09,35,17.90
2012,09,14,09,36,17.90
2012,09,14,09,37,17.90
2012,09,14,09,38,17.90
2012,09,14,09,39,17.90
2012,09,14,09,40,17.90
2012,09,14,09,41,17.90
2012,09,14,09,42,17.90
2012,09,14,09,43,17.90
2012,09,14,09,44,17.90
2012,09,14,09,45,17.90
2012,09,14,09,46,17.90
2012,09,14,09,47,18.00
2012,09,14,09,48,18.10
2012,09,14,09,49,18.10
2012,09,14,09,50,18.10
2012,09,14,09,51,18.20
2012,09,14,09,52,18.20
2012,09,14,09,53,18.20
2012,09,14,09,54,18.20
2012,09,14,09,55,18.20
2012,09,14,09,56,18.20
2012,09,14,09,57,18.20
2012,09,14,09,58,18.20
2012,09,14,09,59,18.30
2012,09,14,10,00,18.30
2012,09,14,10,01,18.40
2012,09,14,10,02,18.40
2012,09,14,10,03,18.50
2012,09,14,10,04,18.50
2012,09,14,10,05,18.50
2012,09,14,10,06,18.60
2012,09,14,10,07,18.60
2012,09,14,10,08,18.70
2012,09,14,10,09,18.70
2012,09,14,10,10,18.80
2012,09,14,10,11,18.80
2012,09,14,10,12,18.90
2012,09,14,10,13,18.90
2012,09,14,10,14,18.90
2012,09,14,10,15,18.90
2012,09,14,10,16,18.90
2012,09,14,10,17,18.90
2012,09,14,10,18,18.90
2012,09,14,10,19,19.00
2012,09,14,10,20,19.10
2012,09,14,10,21,19.10
2012,09,14,10,22,19.10
2012,09,14,10,23,19.20
2012,09,14,10,24,19.20
2012,09,14,10,25,19.30
2012,09,14,10,26,19.30
2012,09,14,10,27,19.30
2012,09,14,10,28,19.30
2012,09,14,10,29,19.30
2012,09,14,10,30,19.30
2012,09,14,10,31,19.30
2012,09,14,10,32,19.30
2012,09,14,10,33,19.40
2012,09,14,10,34,19.40
2012,09,14,10,35,19.50
2012,09,14,10,36,19.50
2012,09,14,10,37,19.50
2012,09,14,10,38,19.60
2012,09,14,10,39,19.60
2012,09,14,10,40,19.60
2012,09,14,10,41,19.50
2012,09,14,10,42,19.40
2012,09,14,10,43,19.40
2012,09,14,10,44,19.30
2012,09,14,10,45,19.30
2012,09,14,10,46,19.20
2012,09,14,10,47,19.20
2012,09,14,10,48,19.20
2012,09,14,10,49,19.20
2012,09,14,10,50,19.20
2012,09,14,10,51,19.30
2012,09,14,10,52,19.30
2012,09,14,10,53,19.40
2012,09,14,10,54,19.40
2012,09,14,10,55,19.40
2012,09,14,10,56,19.40
2012,09,14,10,57,19.40
2012,09,14,10,58,19.30
2012,09,14,10,59,19.40
2012,09,14,11,00,19.40
2012,09,14,11,01,19.40
2012,09,14,11,02,19.40
2012,09,14,11,03,19.40
2012,09,14,11,04,19.40
2012,09,14,11,05,19.40
2012,09,14,11,06,19.40
2012,09,14,11,07,19.50
2012,09,14,11,08,19.50
2012,09,14,11,09,19.60
2012,09,14,11,10,19.60
2012,09,14,11,11,19.70
2012,09,14,11,12,19.70
2012,09,14,11,13,19.70
2012,09,14,11,14,19.70
2012,09,14,11,15,19.70
2012,09,14,11,16,19.70
2012,09,14,11,17,19.70
2012,09,14,11,18,19.70
2012,09,14,11,19,19.60
2012,09,14,11,20,19.60
2012,09,14,11,21,19.60
2012,09,14,11,22,19.60
2012,09,14,11,23,19.70
2012,09,14,11,24,19.70
2012,09,14,11,25,19.70
2012,09,14,11,26,19.80
2012,09,14,11,27,19.80
2012,09,14,11,28,19.80
2012,09,14,11,29,19.80
2012,09,14,11,30,19.80
2012,09,14,11,31,19.80
2012,09,14,11,32,19.80
2012,09,14,11,33,19.90
2012,09,14,11,34,19.90
2012,09,14,11,35,19.90
2012,09,14,11,36,19.90
2012,09,14,11,37,19.90
2012,09,14,11,38,19.90
2012,09,14,11,39,19.90
2012,09,14,11,40,19.90
2012,09,14,11,41,19.90
2012,09,14,11,42,19.90
2012,09,14,11,43,19.80
2012,09,14,11,44,19.80
2012,09,14,11,45,19.90
2012,09,14,11,46,19.90
2012,09,14,11,47,19.90
2012,09,14,11,48,20.00
2012,09,14,11,49,20.10
2012,09,14,11,50,20.20
2012,09,14,11,51,20.20
2012,09,14,11,52,20.20
2012,09,14,11,53,20.20
2012,09,14,11,54,20.20
2012,09,14,11,55,20.20
2012,09,14,11,56,20.20
2012,09,14,11,57,20.20
2012,09,14,11,58,20.20
2012,09,14,11,59,20.20
2012,09,14,12,00,20.20
2012,09,14,12,01,20.20
2012,09,14,12,02,20.20
2012,09,14,12,03,20.20
2012,09,14,12,04,20.20
2012,09,14,12,05,20.20
2012,09,14,12,06,20.20
2012,09,14,12,07,20.20
2012,09,14,12,08,20.30
2012,09,14,12,09,20.40
2012,09,14,12,10,20.50
2012,09,14,12,11,20.50
2012,09,14,12,12,20.60
2012,09,14,12,13,20.70
2012,09,14,12,14,20.70
2012,09,14,12,15,20.70
2012,09,14,12,16,20.70
2012,09,14,12,17,20.80
2012,09,14,12,18,20.90
2012,09,14,12,19,20.80
2012,09,14,12,20,20.90
2012,09,14,12,21,20.90
2012,09,14,12,22,20.90
2012,09,14,12,23,20.90
2012,09,14,12,24,20.90
2012,09,14,12,25,20.90
2012,09,14,12,26,20.90
2012,09,14,12,27,20.90
2012,09,14,12,28,20.90
2012,09,14,12,29,20.90
2012,09,14,12,30,20.90
2012,09,14,12,31,20.90
2012,09,14,12,32,20.90
2012,09,14,12,33,21.00
2012,09,14,12,34,21.00
2012,09,14,12,35,21.00
2012,09,14,12,36,21.00
2012,09,14,12,37,21.10
2012,09,14,12,38,21.20
2012,09,14,12,39,21.20
2012,09,14,12,40,21.30
2012,09,14,12,41,21.30
2012,09,14,12,42,21.30
2012,09,14,12,43,21.40
2012,09,14,12,44,21.50
2012,09,14,12,45,21.60
2012,09,14,12,46,21.60
2012,09,14,12,47,21.70
2012,09,14,12,48,21.70
2012,09,14,12,49,21.80
2012,09,14,12,50,21.80
2012,09,14,12,51,21.90
2012,09,14,12,52,21.90
2012,09,14,12,53,21.80
2012,09,14,12,54,21.70
2012,09,14,12,55,21.70
2012,09,14,12,56,21.70
2012,09,14,12,57,21.80
2012,09,14,12,58,21.80
2012,09,14,12,59,21.80
2012,09,14,13,00,21.90
2012,09,14,13,01,22.00
2012,09,14,13,02,22.00
2012,09,14,13,03,22.10
2012,09,14,13,04,22.20
2012,09,14,13,05,22.20
2012,09,14,13,06,22.20
2012,09,14,13,07,22.30
2012,09,14,13,08,22.30
2012,09,14,13,09,22.30
2012,09,14,13,10,22.30
2012,09,14,13,11,22.30
2012,09,14,13,12,22.20
2012,09,14,13,13,22.10
2012,09,14,13,14,22.10
2012,09,14,13,15,22.10
2012,09,14,13,16,22.10
2012,09,14,13,17,22.00
2012,09,14,13,18,22.00
2012,09,14,13,19,22.00
2012,09,14,13,20,22.00
2012,09,14,13,21,21.90
2012,09,14,13,22,21.90
2012,09,14,13,23,21.80
2012,09,14,13,24,21.70
2012,09,14,13,25,21.60
2012,09,14,13,26,21.60
2012,09,14,13,27,21.60
2012,09,14,13,28,21.60
2012,09,14,13,29,21.50
2012,09,14,13,30,21.40
2012,09,14,13,31,21.40
2012,09,14,13,32,21.30
2012,09,14,13,33,21.40
2012,09,14,13,34,21.40
2012,09,14,13,35,21.40
2012,09,14,13,36,21.40
2012,09,14,13,37,21.50
2012,09,14,13,38,21.60
2012,09,14,13,39,21.60
2012,09,14,13,40,21.70
2012,09,14,13,41,21.80
2012,09,14,13,42,21.90
2012,09,14,13,43,21.90
2012,09,14,13,44,21.90
2012,09,14,13,45,21.90
2012,09,14,13,46,21.80
2012,09,14,13,47,21.80
2012,09,14,13,48,21.80
2012,09,14,13,49,21.80
2012,09,14,13,50,21.70
2012,09,14,13,51,21.80
2012,09,14,13,52,21.80
2012,09,14,13,53,21.90
2012,09,14,13,54,22.00
2012,09,14,13,55,22.00
2012,09,14,13,56,22.10
2012,09,14,13,57,22.10
2012,09,14,13,58,22.20
2012,09,14,13,59,22.20
2012,09,14,14,00,22.20
2012,09,14,14,01,22.20
2012,09,14,14,02,22.30
2012,09,14,14,03,22.30
2012,09,14,14,04,22.40
2012,09,14,14,05,22.50
2012,09,14,14,06,22.50
2012,09,14,14,07,22.60
2012,09,14,14,08,22.70
2012,09,14,14,09,22.70
2012,09,14,14,10,22.80
2012,09,14,14,11,22.80
2012,09,14,14,12,22.90
2012,09,14,14,13,22.90
2012,09,14,14,14,22.90
2012,09,14,14,15,22.80
2012,09,14,14,16,22.80
2012,09,14,14,17,22.70
2012,09,14,14,18,22.60
2012,09,14,14,19,22.60
2012,09,14,14,20,22.60
2012,09,14,14,21,22.60
2012,09,14,14,22,22.60
2012,09,14,14,23,22.60
2012,09,14,14,24,22.70
2012,09,14,14,25,22.60
2012,09,14,14,26,22.60
2012,09,14,14,27,22.60
2012,09,14,14,28,22.60
2012,09,14,14,29,22.60
2012,09,14,14,30,22.60
2012,09,14,14,31,22.50
2012,09,14,14,32,22.50
2012,09,14,14,33,22.50
2012,09,14,14,34,22.50
2012,09,14,14,35,22.50
2012,09,14,14,36,22.60
2012,09,14,14,37,22.60
2012,09,14,14,38,22.70
2012,09,14,14,39,22.70
2012,09,14,14,40,22.80
2012,09,14,14,41,22.70
2012,09,14,14,42,22.70
2012,09,14,14,43,22.60
2012,09,14,14,44,22.60
2012,09,14,14,45,22.50
2012,09,14,14,46,22.40
2012,09,14,14,47,22.30
2012,09,14,14,48,22.30
2012,09,14,14,49,22.30
2012,09,14,14,50,22.30
2012,09,14,14,51,22.40
2012,09,14,14,52,22.40
2012,09,14,14,53,22.50
2012,09,14,14,54,22.60
2012,09,14,14,55,22.60
2012,09,14,14,56,22.70
2012,09,14,14,57,22.70
2012,09,14,14,58,22.80
2012,09,14,14,59,22.80
2012,09,14,15,00,22.80
2012,09,14,15,01,22.90
2012,09,14,15,02,22.90
2012,09,14,15,03,22.90
2012,09,14,15,04,23.00
2012,09,14,15,05,23.10
2012,09,14,15,06,23.20
2012,09,14,15,07,23.20
2012,09,14,15,08,23.30
2012,09,14,15,09,23.30
2012,09,14,15,10,23.30
2012,09,14,15,11,23.40
2012,09,14,15,12,23.40
2012,09,14,15,13,23.50
2012,09,14,15,14,23.60
2012,09,14,15,15,23.70
2012,09,14,15,16,23.70
2012,09,14,15,17,23.80
2012,09,14,15,18,23.80
2012,09,14,15,19,23.90
2012,09,14,15,20,23.90
2012,09,14,15,21,24.00
2012,09,14,15,22,24.10
2012,09,14,15,23,24.10
2012,09,14,15,24,24.10
2012,09,14,15,25,24.10
2012,09,14,15,26,24.10
2012,09,14,15,27,24.20
2012,09,14,15,28,24.20
2012,09,14,15,29,24.10
2012,09,14,15,30,24.10
2012,09,14,15,31,24.10
2012,09,14,15,32,24.10
2012,09,14,15,33,24.00
2012,09,14,15,34,23.80
2012,09,14,15,35,23.80
2012,09,14,15,36,23.80
2012,09,14,15,37,23.80
2012,09,14,15,38,23.80
2012,09,14,15,39,23.80
2012,09,14,15,40,23.70
2012,09,14,15,41,23.70
2012,09,14,15,42,23.70
2012,09,14,15,43,23.70
2012,09,14,15,44,23.70
2012,09,14,15,45,23.80
2012,09,14,15,46,23.90
2012,09,14,15,47,24.00
2012,09,14,15,48,24.10
2012,09,14,15,49,24.10
2012,09,14,15,50,24.10
2012,09,14,15,51,23.90
2012,09,14,15,52,23.90
2012,09,14,15,53,23.90
2012,09,14,15,54,23.90
2012,09,14,15,55,23.90
2012,09,14,15,56,23.90
2012,09,14,15,57,23.80
2012,09,14,15,58,23.70
2012,09,14,15,59,23.70
2012,09,14,16,00,23.70
2012,09,14,16,01,23.70
2012,09,14,16,02,23.70
2012,09,14,16,03,23.70
2012,09,14,16,04,23.70
2012,09,14,16,05,23.70
2012,09,14,16,06,23.80
2012,09,14,16,07,23.80
2012,09,14,16,08,23.90
2012,09,14,16,09,23.90
2012,09,14,16,10,24.00
2012,09,14,16,11,24.10
2012,09,14,16,12,24.10
2012,09,14,16,13,24.10
2012,09,14,16,14,24.10
2012,09,14,16,15,24.10
2012,09,14,16,16,24.00
2012,09,14,16,17,23.80
2012,09,14,16,18,23.70
2012,09,14,16,19,23.70
2012,09,14,16,20,23.70
2012,09,14,16,21,23.70
2012,09,14,16,22,23.70
2012,09,14,16,23,23.70
2012,09,14,16,24,23.80
2012,09,14,16,25,23.80
2012,09,14,16,26,23.70
2012,09,14,16,27,23.70
2012,09,14,16,28,23.70
2012,09,14,16,29,23.70
2012,09,14,16,30,23.70
2012,09,14,16,31,23.70
2012,09,14,16,32,23.70
2012,09,14,16,33,23.70
2012,09,14,16,34,23.70
2012,09,14,16,35,23.70
2012,09,14,16,36,23.70
2012,09,14,16,37,23.70
2012,09,14,16,38,23.70
2012,09,14,16,39,23.70
2012,09,14,16,40,23.70
2012,09,14,16,41,23.70
2012,09,14,16,42,23.70
2012,09,14,16,43,23.70
2012,09,14,16,44,23.70
2012,09,14,16,45,23.70
2012,09,14,16,46,23.70
2012,09,14,16,47,23.70
2012,09,14,16,48,23.70
2012,09,14,16,49,23.70
2012,09,14,16,50,23.70
2012,09,14,16,51,23.80
2012,09,14,16,52,23.90
2012,09,14,16,53,23.90
2012,09,14,16,54,23.90
2012,09,14,16,55,23.90
2012,09,14,16,56,23.90
2012,09,14,16,57,23.90
2012,09,14,16,58,23.80
2012,09,14,16,59,23.80
2012,09,14,17,00,23.80
2012,09,14,17,01,23.90
2012,09,14,17,02,23.90
2012,09,14,17,03,23.90
2012,09,14,17,04,23.90
2012,09,14,17,05,23.90
2012,09,14,17,06,23.80
2012,09,14,17,07,23.80
2012,09,14,17,08,23.80
2012,09,14,17,09,23.80
2012,09,14,17,10,23.70
2012,09,14,17,11,23.70
2012,09,14,17,12,23.70
2012,09,14,17,13,23.70
2012,09,14,17,14,23.70
2012,09,14,17,15,23.80
2012,09,14,17,16,23.80
2012,09,14,17,17,23.80
2012,09,14,17,18,23.80
2012,09,14,17,19,23.80
2012,09,14,17,20,23.80